This demonstration page uses our WeatherBlox Daily Observations layout. Learn more.

Hourly Observations for February 16, 2017

Temp ( °F °C ) Dew Point ( °F °C ) Humidity (%) Winds ( mph kmh ) Pressure ( in mb ) Visibility ( mi km ) Precip ( " mm )
12:15 am 00:15 Clear 44 6.5 23 -5.1 44 44 SW 14 22 29.85 1011 10 16.0934 0 0
12:35 am 00:35 Clear 44 6.5 23 -5.1 44 44 WSW 12 19 29.85 1011 10 16.0934 0 0
12:55 am 00:55 Clear 43 6 23 -5 46 46 WSW 12 19 29.85 1011 10 16.0934 0 0
1:15 am 01:15 Clear 42 5.5 23 -5 47 47 WSW 12 19 29.85 1011 10 16.0934 0 0
1:35 am 01:35 Clear 41 4.9 23 -5 49 49 WSW 12 19 29.85 1011 10 16.0934 0 0
1:55 am 01:55 Clear 40 4.7 23 -5 50 50 WSW 12 19 29.83 1010 10 16.0934 0 0
2:15 am 02:15 Clear 40 4.4 23 -5 51 51 WSW 10 17 29.83 1010 10 16.0934 0 0
2:35 am 02:35 Clear 39 3.9 23 -5 53 53 W 12 19 29.83 1010 10 16.0934 0 0
2:55 am 02:55 Clear 37 3 23 -5 56 56 W 13 20 29.85 1011 10 16.0934 0 0
3:10 am 03:10 Clear 37 3 23 -5.1 56 56 W 12 19 29.85 1011 10 16.0934 0 0
3:35 am 03:35 Clear 37 2.5 23 -5.1 58 58 W 9 15 29.85 1011 10 16.0934 0 0
3:55 am 03:55 Clear 38 3.1 23 -5.1 55 55 W 10 17 29.85 1011 10 16.0934 0 0
4:15 am 04:15 Clear 37 3 23 -5.1 56 56 W 13 20 29.85 1011 10 16.0934 0 0
4:35 am 04:35 Clear 37 3 23 -5.1 56 56 W 8 13 29.85 1011 10 16.0934 0 0
4:55 am 04:55 Clear 36 2.2 23 -5.1 59 59 W 10 17 29.85 1011 10 16.0934 0 0
5:15 am 05:15 Clear 35 1.9 23 -5.2 60 60 W 9 15 29.85 1011 10 16.0934 0 0
5:35 am 05:35 Clear 36 2 23 -5 60 60 W 9 15 29.85 1011 10 16.0934 0 0
5:55 am 05:55 Clear 35 1.5 23 -5.2 61 61 W 8 13 29.85 1011 10 16.0934 0 0
6:15 am 06:15 Clear 34 1 22 -5.3 63 63 W 9 15 29.85 1011 10 16.0934 0 0
6:35 am 06:35 Clear 33 0.7 23 -5.1 66 66 W 10 17 29.88 1012 10 16.0934 0 0
6:55 am 06:55 Clear 32 0.1 23 -5.2 68 68 W 9 15 29.88 1012 10 16.0934 0 0
7:15 am 07:15 Clear 32 0 23 -5.1 69 69 W 9 15 29.88 1012 10 16.0934 0 0
7:35 am 07:35 Sunny 32 0 23 -5 69 69 W 8 13 29.88 1012 10 16.0934 0 0
7:55 am 07:55 Sunny 33 0.3 23 -5 68 68 W 7 11 29.88 1012 10 16.0934 0 0
8:15 am 08:15 Sunny 34 1 24 -4.5 67 67 W 7 11 29.85 1011 10 16.0934 0 0
8:35 am 08:35 Sunny 36 2.2 24 -4.5 62 62 W 7 11 29.85 1011 10 16.0934 0 0
8:55 am 08:55 Sunny 39 4 25 -4.1 56 56 W 8 13 29.83 1010 10 16.0934 0 0
9:15 am 09:15 Sunny 40 4.5 25 -3.7 56 56 W 9 15 29.83 1010 10 16.0934 0 0
9:35 am 09:35 Sunny 45 7 26 -3.3 48 48 W 8 13 29.83 1010 10 16.0934 0 0
9:55 am 09:55 Sunny 49 9.3 26 -3.6 40 40 WNW 10 17 29.8 1009 10 16.0934 0 0
10:15 am 10:15 Sunny 52 11.3 25 -4 34 34 WNW 12 19 29.77 1008 10 16.0934 0 0
10:35 am 10:35 Sunny 53 11.9 26 -3.6 34 34 WNW 7 11 29.77 1008 10 16.0934 0 0
10:55 am 10:55 Sunny 55 13 25 -3.7 31 31 NW 8 13 29.77 1008 10 16.0934 0 0
11:15 am 11:15 Sunny 57 13.7 26 -3.5 30 30 WNW 7 11 29.77 1008 10 16.0934 0 0
11:35 am 11:35 Sunny 59 14.9 26 -3.5 28 28 W 6 9 29.74 1007 10 16.0934 0 0
11:55 am 11:55 Sunny 62 16.4 24 -4.3 24 24 W 6 9 29.71 1006 10 16.0934 0 0
12:15 pm 12:15 Sunny 62 16.9 26 -3.6 25 25 WSW 6 9 29.71 1006 10 16.0934 0 0
12:35 pm 12:35 Sunny 64 17.5 26 -3.3 24 24 WSW 9 15 29.65 1004 10 16.0934 0 0
12:55 pm 12:55 Sunny 65 18.5 26 -3.6 22 22 WSW 9 15 29.65 1004 10 16.0934 0 0
1:15 pm 13:15 Sunny 66 19 25 -4 21 21 WSW 10 17 29.65 1004 10 16.0934 0 0
1:35 pm 13:35 Sunny 68 19.9 23 -4.8 19 19 W 9 15 29.62 1003 10 16.0934 0 0
1:55 pm 13:55 Sunny 70 21 20 -6.4 15 15 WSW 13 20 29.59 1002 10 16.0934 0 0
2:15 pm 14:15 Sunny 72 22 21 -6.3 14 14 WSW 13 20 29.59 1002 10 16.0934 0 0
2:35 pm 14:35 Sunny 72 22.2 20 -6.7 14 14 W 14 22 29.59 1002 10 16.0934 0 0
2:55 pm 14:55 Sunny 73 22.8 19 -7.1 13 13 W 10 17 29.59 1002 10 16.0934 0 0
3:15 pm 15:15 Sunny 74 23.1 17 -8.4 11 11 W 10 17 29.59 1002 10 16.0934 0 0
3:35 pm 15:35 Sunny 73 23 16 -8.9 11 11 W 10 17 29.59 1002 10 16.0934 0 0
3:55 pm 15:55 Sunny 73 23 18 -7.9 12 12 W 12 19 29.59 1002 10 16.0934 0 0
4:15 pm 16:15 Sunny 72 22.3 18 -7.8 13 13 W 10 17 29.56 1001 10 16.0934 0 0
4:35 pm 16:35 Sunny 73 22.5 18 -8 12 12 WSW 9 15 29.56 1001 10 16.0934 0 0
4:55 pm 16:55 Sunny 72 22.2 18 -7.9 13 13 WSW 8 13 29.56 1001 10 16.0934 0 0
5:15 pm 17:15 Sunny 71 21.6 18 -7.8 13 13 SW 6 9 29.56 1001 10 16.0934 0 0
5:35 pm 17:35 Sunny 69 20.4 19 -7.4 15 15 SW 6 9 29.56 1001 7 11.26538 0 0
5:55 pm 17:55 Sunny 65 18.5 19 -7.5 16 16 SW 6 9 29.59 1002 10 16.0934 0 0
6:15 pm 18:15 Clear 62 16.7 20 -6.9 19 19 SW 6 9 29.59 1002 10 16.0934 0 0
6:35 pm 18:35 Clear 58 14.7 19 -7.1 22 22 SSW 7 11 29.62 1003 10 16.0934 0 0
6:55 pm 18:55 Clear 57 13.7 19 -7.1 23 23 SSW 6 9 29.62 1003 10 16.0934 0 0
7:15 pm 19:15 Clear 56 13.5 19 -7.5 23 23 SSW 8 13 29.62 1003 10 16.0934 0 0
7:35 pm 19:35 Clear 54 12.4 19 -7.5 24 24 SSW 8 13 29.65 1004 10 16.0934 0 0
7:55 pm 19:55 Clear 53 11.9 19 -7.5 25 25 SSW 6 9 29.65 1004 10 16.0934 0 0
8:15 pm 20:15 Clear 52 11.1 18 -7.6 26 26 SSW 7 11 29.65 1004 10 16.0934 0 0
8:35 pm 20:35 Clear 50 10.1 19 -7.3 29 29 SSW 10 17 29.62 1003 10 16.0934 0 0
8:55 pm 20:55 Clear 50 10 19 -7.5 29 29 SSW 9 15 29.65 1004 10 16.0934 0 0
9:15 pm 21:15 Clear 51 10.3 18 -7.6 28 28 SSW 8 13 29.65 1004 10 16.0934 0 0
9:35 pm 21:35 Clear 52 11 17 -8.1 26 26 SSW 9 15 29.62 1003 10 16.0934 0 0
9:55 pm 21:55 Clear 54 12.4 17 -8.3 23 23 SSW 12 19 29.59 1002 10 16.0934 0 0
10:15 pm 22:15 Clear 55 12.8 16 -8.7 22 22 S 12 19 29.59 1002 10 16.0934 0 0
10:35 pm 22:35 Clear 54 12.2 16 -9 22 22 S 12 19 29.62 1003 10 16.0934 0 0
10:55 pm 22:55 Clear 54 12 16 -8.9 22 22 S 12 19 29.62 1003 10 16.0934 0 0
11:15 pm 23:15 Clear 50 9.8 17 -8.3 27 27 SSW 6 9 29.59 1002 10 16.0934 0 0
11:35 pm 23:35 Clear 47 8.6 17 -8.3 30 30 SSW 7 11 29.62 1003 10 16.0934 0 0
11:55 pm 23:55 Clear 46 7.6 17 -8.3 32 32 SSW 8 13 29.62 1003 10 16.0934 0 0

Powered by AerisWeather